RH
26 27 25 17 24 26 22 10 7 6 6 7 8 8 8 8 8 8 7 6 6 6 6 6 6 6 6 6 6 6 6 6 7 8 8 8 7 8 15 23 19 19 19
31 30 28 23 23 28 28 11 6 6 7 7 8 8 8 8 8 7 7 7 7 7 8 9 9 7 7 7 7 7 7 7 7 7 7 7 7 7 7 7 8 24 23
30 30 30 28 21 17 22 17 7 6 7 8 8 8 8 9 7 8 10 10 10 13 13 13 14 16 14 14 14 14 14 14 13 14 13 12 10 12 11 10 11 8 8
31 33 33 32 26 17 12 10 7 7 8 8 8 8 8 7 7 10 11 13 14 14 13 15 15 14 14 12 12 11 10 10 10 9 10 10 11 13 13 14 16 17 15
36 36 36 34 32 21 10 7 8 8 8 8 8 8 8 7 7 8 10 12 10 9 11 9 7 6 5 5 4 4 4 4 4 5 6 7 5 6 5 5 7 11 16
40 39 38 38 34 28 13 7 8 8 8 8 7 7 7 7 7 10 12 5 6 6 5 5 4 4 4 4 4 4 4 3 3 3 3 4 4 5 6 5 4 4 5
43 43 43 42 39 27 15 8 8 9 9 8 8 7 7 7 10 13 7 4 4 4 5 5 4 4 4 4 4 4 4 4 4 4 4 4 4 4 4 5 6 6 5
44 44 48 50 50 39 21 9 9 9 9 8 8 8 7 8 14 16 5 4 5 6 5 5 4 4 4 4 4 4 4 4 4 4 5 5 6 6 6 6 7 8 8
47 44 46 50 54 48 36 12 9 9 9 8 8 8 8 11 15 15 7 6 6 6 5 4 4 4 4 4 4 4 4 4 5 6 7 8 8 9 9 9 9 9 10
50 48 50 52 53 51 34 13 10 10 9 8 8 8 9 12 10 11 7 6 6 6 5 5 4 4 4 4 3 3 3 3 3 4 4 5 7 9 8 7 7 6 10
59 57 55 53 52 54 37 13 11 16 9 9 9 9 11 12 9 7 7 7 7 6 5 5 4 4 4 3 3 2 2 2 3 4 4 4 5 6 5 6 7 8 11
68 64 54 57 59 56 35 13 12 14 10 9 9 9 13 17 16 12 9 8 7 6 6 4 4 4 4 3 2 2 3 3 3 4 4 4 5 4 4 4 6 7 7
74 70 65 76 68 65 33 16 38 14 10 10 10 10 14 18 15 13 12 9 7 7 5 4 4 4 3 2 3 3 4 3 4 5 4 4 4 4 6 6 8 9 8
69 63 55 62 57 67 45 47 34 10 11 10 10 10 12 17 14 13 12 10 7 7 6 4 4 4 3 3 3 4 5 4 4 5 6 8 10 11 11 12 12 12 14
70 64 54 52 65 76 71 61 15 11 11 10 10 10 10 14 13 12 13 12 8 8 7 4 4 3 4 4 4 4 6 8 8 9 9 9 8 7 9 11 13 14 12
67 52 44 26 68 82 58 25 13 11 11 10 10 10 9 10 11 10 13 13 9 8 8 5 4 3 4 5 5 4 4 6 8 9 10 11 11 12 11 10 9 8 8
66 56 32 19 46 90 43 21 13 12 11 11 10 10 10 9 9 9 13 14 10 8 9 8 4 3 4 6 6 6 6 4 4 5 6 8 8 9 10 8 9 9 9
65 55 32 26 52 82 30 18 14 12 12 12 11 11 10 10 9 9 11 13 12 9 9 9 5 3 5 7 7 7 7 7 4 4 5 6 8 8 8 9 10 11 13
62 45 29 29 54 77 80 43 15 13 13 12 12 11 11 10 10 9 10 13 12 11 10 10 6 4 4 7 7 7 7 8 8 7 7 8 8 10 8 9 9 11 12
49 41 20 26 42 63 52 19 15 14 14 13 13 12 12 11 10 9 10 12 12 11 10 10 8 4 3 5 8 8 7 7 8 8 9 10 10 10 12 12 12 11 12
43 29 16 21 35 40 31 18 20 14 14 13 13 12 12 11 10 8 10 11 11 12 12 11 9 4 4 3 4 8 8 7 8 10 10 11 11 10 11 12 12 11 13
39 13 12 18 30 30 23 18 16 15 14 14 14 13 12 11 9 8 10 11 12 13 12 12 11 7 4 4 4 4 7 6 6 10 11 9 7 8 10 12 14 16 18
16 8 10 20 28 27 21 18 16 16 15 15 14 13 12 10 8 8 10 12 13 14 13 12 13 8 4 4 4 4 5 6 5 7 9 9 7 7 8 9 13 16 17
8 9 18 25 28 24 21 18 17 17 16 16 14 11 10 7 7 10 12 14 15 16 15 14 13 8 4 4 5 6 6 5 4 5 6 8 6 6 7 8 11 14 18
10 15 20 26 27 24 21 20 19 18 17 15 11 9 7 7 9 12 14 16 17 16 16 15 12 8 5 5 6 7 8 6 5 5 5 6 6 6 9 16 19 20 21
14 18 20 24 25 24 22 20 19 17 15 12 8 6 7 10 12 14 17 18 18 16 16 12 8 6 5 6 6 8 7 6 6 6 6 7 8 9 12 20 22 24 28
Wind_Speed
3 2 1 2 3 6 6 4 3 2 2 3 4 5 5 7 9 10 12 13 14 14 14 14 14 13 13 13 14 14 15 15 15 15 15 15 16 16 15 16 18 19 18
3 1 1 3 4 5 5 4 3 2 0 0 1 3 5 7 10 12 14 16 17 18 17 16 16 16 16 16 17 18 19 19 20 20 20 21 20 21 21 20 20 19 20
3 1 1 3 5 6 6 5 4 3 3 3 3 4 5 8 10 13 16 19 20 20 19 17 17 17 16 17 17 18 19 20 21 21 22 23 24 23 23 23 23 24 23
5 4 3 4 6 6 6 6 5 4 4 5 5 6 8 10 12 15 18 21 19 14 12 11 11 11 12 13 14 15 16 17 17 18 19 20 22 23 23 22 23 24 25
7 6 5 5 6 7 7 7 6 6 6 6 7 8 10 12 15 17 20 19 12 11 10 10 10 11 12 14 16 17 18 20 20 21 21 21 21 23 22 22 23 23 24
10 8 7 5 7 8 8 8 8 8 8 8 9 10 11 13 16 19 19 14 11 10 10 10 12 14 16 18 19 20 21 23 26 26 26 26 26 26 26 26 25 25 24
11 9 7 7 8 11 11 10 10 10 10 9 10 10 12 14 17 19 15 12 11 11 13 15 16 18 20 22 24 26 28 30 32 33 32 31 31 31 30 29 28 28 28
13 11 11 11 16 13 13 14 12 13 12 11 11 11 12 15 18 20 14 11 12 14 16 18 20 22 25 28 29 31 33 35 37 38 37 37 36 35 36 34 33 31 31
19 21 24 25 17 15 15 17 16 14 14 13 12 12 13 15 19 19 15 13 15 16 18 20 23 25 28 33 35 38 40 42 44 44 43 43 43 43 41 40 38 37 35
20 20 22 21 18 18 19 18 18 16 15 15 13 12 13 16 20 17 15 16 18 19 21 23 26 28 31 36 40 43 45 47 49 45 44 43 43 43 43 41 39 38 37
21 22 23 25 23 22 22 20 20 18 18 16 13 13 13 16 19 18 18 19 21 22 23 25 26 30 34 39 42 44 46 44 42 36 33 33 33 33 32 31 31 30 32
24 24 24 24 25 24 23 22 22 21 18 16 15 13 13 15 18 20 21 22 24 25 25 26 28 33 36 39 40 39 36 38 37 30 26 26 28 28 26 23 21 22 23
27 24 25 24 25 25 23 22 20 23 19 17 16 14 14 15 18 22 24 25 26 26 26 27 29 34 36 36 37 37 34 34 28 23 24 23 22 22 18 18 16 16 17
26 27 27 24 25 26 24 22 23 23 21 17 18 17 16 18 20 23 26 27 27 28 28 29 32 35 36 35 36 30 30 29 25 21 18 16 15 16 17 17 19 20 20
29 30 27 24 28 29 30 28 25 24 21 19 20 19 19 20 22 24 28 30 29 30 30 32 34 36 34 36 27 27 27 26 22 21 20 21 21 21 22 22 22 22 21
30 29 28 27 28 26 16 23 26 24 22 23 22 21 22 23 25 26 30 32 31 32 32 34 36 35 34 33 28 26 26 25 24 24 25 25 24 22 20 19 18 19 19
29 30 29 27 28 26 22 25 26 25 24 25 23 24 25 26 27 29 31 33 34 34 35 36 36 35 34 31 27 26 26 26 25 23 21 20 21 21 21 20 21 21 21
32 32 30 29 26 27 23 25 27 27 26 25 26 26 28 28 29 31 33 35 36 37 37 37 37 38 34 33 30 28 26 26 24 23 23 22 24 25 24 24 25 26 26
33 33 31 31 26 26 25 29 30 28 28 27 28 28 29 30 31 33 35 37 39 39 39 38 38 38 35 34 32 30 29 27 26 27 26 26 25 26 28 28 28 29 31
33 32 31 30 28 26 27 30 30 30 30 29 30 31 31 33 33 35 37 39 41 42 41 40 39 39 38 36 36 34 32 31 30 30 30 31 31 31 30 31 32 33 35
31 31 31 30 29 30 31 31 32 33 32 32 32 33 34 35 36 38 39 42 43 44 42 41 41 42 41 38 39 39 37 36 36 35 33 32 33 34 35 34 35 36 37
30 30 30 30 30 31 32 33 33 34 34 33 34 35 36 37 39 40 42 44 45 48 45 43 44 45 44 43 41 42 41 41 39 38 36 36 37 37 38 40 40 39 40
28 29 29 30 31 31 32 33 34 35 35 35 36 37 38 39 42 42 45 47 49 50 47 45 46 48 47 46 44 42 44 44 43 42 41 39 40 41 42 42 43 43 44
26 26 27 30 31 32 32 34 35 37 37 37 38 39 40 43 44 45 49 51 52 50 48 47 48 49 49 49 46 43 43 44 44 45 46 44 43 43 43 45 45 47 48
24 26 28 29 31 31 33 35 36 38 38 39 40 42 44 45 46 50 53 55 53 51 51 50 51 50 49 49 46 44 44 44 44 44 46 49 48 46 44 45 47 48 50
24 26 28 29 31 32 35 36 38 39 40 42 44 45 46 48 52 55 56 55 54 53 52 52 51 51 52 51 49 46 44 43 44 46 46 46 47 49 49 50 51 53 56
Wind_Direction
143 83 308 307 326 339 339 340 335 348 57 74 72 60 41 20 7 356 344 338 335 331 327 322 317 312 310 311 311 309 309 308 306 304 301 300 300 299 296 293 289 284 279
172 143 271 285 295 312 325 319 311 307 243 198 10 0 1 355 345 340 333 331 329 323 321 317 315 313 313 312 312 311 308 306 304 301 299 298 297 295 295 292 289 286 283
198 167 265 303 299 294 298 297 283 273 252 253 277 310 327 331 332 332 331 329 326 323 320 318 314 312 312 313 313 311 310 308 307 306 305 302 298 297 293 291 287 283 279
233 258 264 279 293 290 285 270 270 264 261 262 280 300 317 326 328 333 333 331 324 321 326 336 338 334 331 328 325 323 319 315 313 310 306 303 299 297 294 290 285 281 279
248 254 263 267 283 284 277 265 260 262 261 269 282 295 314 321 325 327 333 327 322 323 323 328 329 327 326 325 323 320 318 314 312 308 304 300 298 297 295 292 290 286 280
254 252 260 268 281 281 274 264 258 258 263 272 283 296 310 322 328 335 335 325 322 321 322 326 329 329 328 323 318 317 316 313 310 306 302 298 294 290 289 288 287 286 285
246 254 257 282 284 284 272 260 257 258 262 273 285 300 315 327 335 338 328 324 325 322 326 328 327 323 320 318 318 318 316 312 307 300 295 290 287 286 283 282 282 282 281
238 251 256 280 294 289 279 262 254 257 264 273 285 303 317 328 336 337 321 319 320 323 326 326 323 323 324 323 320 313 309 303 297 291 288 285 283 283 282 282 281 282 280
248 256 264 276 277 274 272 262 254 256 265 274 285 303 319 327 333 329 315 319 319 319 323 323 321 323 324 321 316 311 305 298 292 289 290 291 290 288 286 283 283 283 282
247 250 261 266 267 268 262 252 251 252 263 270 282 300 317 327 331 324 319 318 317 320 323 321 323 324 323 320 315 309 304 301 299 296 293 289 286 285 284 284 282 281 280
247 254 257 263 264 263 258 248 245 253 255 265 281 297 316 331 333 328 324 322 320 322 321 322 325 325 323 321 315 311 309 308 302 302 302 298 291 290 290 286 284 282 278
257 259 260 264 265 256 253 243 245 249 254 263 275 291 311 327 330 329 325 322 321 323 322 325 326 326 323 320 316 318 320 317 309 302 299 297 296 294 293 289 287 284 280
259 266 271 265 262 258 251 241 247 252 253 262 274 287 303 318 326 329 328 323 321 320 321 321 324 324 325 322 322 323 326 326 327 313 301 298 296 297 296 293 294 289 284
263 269 273 266 259 253 238 244 244 248 252 262 271 284 296 310 320 326 326 322 319 319 320 320 321 324 326 324 321 327 328 337 340 330 317 312 314 316 313 307 301 298 295
264 268 269 262 260 262 238 233 244 247 252 262 271 283 290 302 312 319 324 321 319 319 321 318 322 323 322 323 320 328 329 330 339 329 325 316 309 306 302 301 297 295 295
262 267 269 261 258 266 236 240 242 245 253 261 271 281 288 295 306 311 319 321 320 318 320 318 320 322 316 317 313 321 325 324 320 317 313 311 311 310 312 314 315 314 311
259 269 272 260 258 268 243 244 244 247 254 261 272 281 287 293 302 308 314 319 319 317 317 318 317 320 312 310 309 313 317 320 322 317 319 321 319 318 316 313 311 309 305
259 264 268 260 251 255 242 242 247 250 254 264 273 281 288 296 301 303 308 316 315 316 316 317 316 319 308 307 305 304 308 313 310 308 309 313 314 311 306 306 308 305 302
257 260 263 258 254 256 231 235 249 252 259 267 275 283 289 296 299 301 305 312 313 315 315 315 312 315 306 297 299 297 298 301 302 301 301 302 301 303 300 300 299 300 299
254 257 258 253 250 251 248 246 252 257 263 270 278 285 291 296 298 299 302 308 311 312 312 311 310 309 308 293 290 290 291 292 293 293 295 296 296 294 293 293 295 295 295
253 255 255 251 245 243 245 248 252 260 266 273 280 286 291 294 296 297 300 304 308 309 309 309 307 306 307 301 288 284 284 287 289 287 285 288 292 291 291 291 289 289 290
252 255 252 248 244 240 242 249 256 263 270 277 283 286 290 293 295 295 298 302 305 305 307 308 306 304 305 304 297 282 280 282 284 284 284 288 290 289 289 289 289 289 289
251 252 250 245 240 241 247 253 259 266 272 278 283 286 290 292 291 293 297 301 302 304 306 306 305 303 304 305 299 289 279 279 280 281 280 282 285 285 286 287 290 291 291
247 247 242 240 240 244 250 257 265 270 275 280 284 287 289 290 291 293 296 298 301 305 306 305 302 301 303 305 301 289 284 281 280 282 283 283 284 285 286 288 290 293 293
243 240 239 240 245 252 259 263 269 274 278 281 283 285 286 287 289 291 294 299 304 306 306 303 301 300 302 303 300 292 287 285 283 284 286 286 286 286 287 290 291 290 290
243 242 243 247 254 258 264 269 273 276 279 280 282 284 285 287 287 292 299 302 304 305 303 301 300 300 299 298 294 290 290 289 287 286 286 287 288 288 289 290 290 290 291